Regional Weather Roundup
Issued by NWS

Home | Current Version | Previous Version | Graphics & Text | Print | Product List | Glossary On
Versions: 1 2 3 4 5 6 7 8 9 10 11 12 13 14 15 16 17 18 19 20 21 22 23 24 25 26 27 28 29 30 31 32 33 34 35 36 37 38 39 40 41 42 43 44 45 46 47 48 49 50
000
ASUS45 KBOI 272010
RWRID
WEATHER ROUNDUP FOR IDAHO
NATIONAL WEATHER SERVICE BOISE ID
200 PM MDT WED AUG 27 2014

NOTE: "FAIR" INDICATES FEW OR NO CLOUDS BELOW 12000 FEET
WITH NO SIGNIFICANT WEATHER AND/OR OBSTRUCTIONS TO VISIBILITY

IDZ012-014-272100-
SOUTHWEST IDAHO


CITY           SKY/WX    TMP DP  RH WIND       PRES   REMARKS
BOISE          SUNNY     85  42  22 N5        30.11F
CALDWELL       SUNNY     84  46  26 SE6       30.11F
MOUNTAIN HOME  SUNNY     82  45  26 VRB3      30.12F
$$

IDZ016-017-272100-
SOUTHCENTRAL IDAHO


CITY           SKY/WX    TMP DP  RH WIND       PRES   REMARKS
BURLEY         SUNNY     76  47  35 NW7       30.18F
JEROME         SUNNY     76  46  34 VRB7      30.19F
TWIN FALLS     SUNNY     79  50  36 VRB7      30.18F
$$

IDZ019>023-272100-
SOUTHEAST IDAHO


CITY           SKY/WX    TMP DP  RH WIND       PRES   REMARKS
IDAHO FALLS    MOSUNNY   76  45  33 SW7       30.20F
POCATELLO      MOSUNNY   79  44  28 W9        30.20F
REXBURG        SUNNY     74  47  38 SW9       30.20F
$$

IDZ006-010-011-018-031-032-272100-
CENTRAL IDAHO MOUNTAINS


CITY           SKY/WX    TMP DP  RH WIND       PRES   REMARKS
MCCALL         SUNNY     74  39  28 SE9       30.21F
HAILEY         MOSUNNY   75  43  31 E6        30.23F
STANLEY          N/A     73  39  29 MISG      30.29F
SALMON         SUNNY     72  50  46 CALM      30.14F
CHALLIS        SUNNY     75  41  29 VRB5      30.19F
$$

IDZ002-004-006-007-026-272100-
NORTHERN IDAHO


CITY           SKY/WX    TMP DP  RH WIND       PRES   REMARKS
LEWISTON       SUNNY     86  47  25 NW3       30.01F
LOWELL           N/A     82  52  35 N3        30.02F
COEUR D`ALENE  SUNNY     84  48  28 SE9       30.03F
MULLAN PASS    SUNNY     68  40  35 MISG      30.25S
$$



USA.gov is the U.S. government's official web portal to all federal, state and local government web resources and services.